GEFSGL_prec_meanprecacc_354.txt.gz
Total_Precipitation_Accumulation
2.31 2.51 2.51 2.51 2.58 2.67 2.53 2.27 2.19 2.24 2.35 2.42 2.53 2.52 2.43 2.45 2.58 2.65 2.62 2.94 3.10 3.12 3.11 3.12 3.09 3.25 3.23 3.10 3.21 3.39 3.67 3.76 3.34 2.76 2.62 2.57 2.58 2.45 2.45 2.31 2.18 2.15 1.94
2.21 2.43 2.50 2.49 2.55 2.60 2.46 2.27 2.27 2.35 2.36 2.29 2.35 2.36 2.23 2.25 2.48 2.50 2.56 2.87 3.02 2.90 2.93 2.96 2.73 2.81 2.90 2.76 2.91 2.98 3.13 3.40 3.29 2.92 2.84 2.79 2.75 2.64 2.62 2.56 2.31 2.08 1.82
2.14 2.45 2.62 2.66 2.64 2.57 2.39 2.18 2.10 2.05 2.07 2.07 2.09 2.11 2.16 2.32 2.44 2.44 2.47 2.47 2.49 2.57 2.80 2.93 2.71 2.69 2.60 2.61 2.66 2.64 2.71 2.82 3.08 2.98 2.82 2.86 2.79 2.78 2.71 2.50 2.30 2.19 1.82
2.07 2.28 2.42 2.32 2.26 2.27 2.14 1.96 1.86 1.85 1.87 1.93 2.02 2.10 2.17 2.25 2.32 2.42 2.48 2.38 2.35 2.40 2.55 2.62 2.59 2.55 2.47 2.58 2.51 2.53 2.60 2.77 2.93 2.98 2.85 2.93 2.92 2.88 2.92 2.71 2.70 2.52 2.27
1.73 1.83 1.99 1.98 1.94 1.89 1.93 1.97 1.96 2.00 1.94 2.00 2.08 2.08 2.07 2.06 2.00 2.10 2.18 2.20 2.36 2.30 2.19 2.16 2.17 2.22 2.21 2.27 2.11 2.31 2.58 2.74 2.81 2.83 2.83 3.01 3.15 3.19 3.01 2.94 2.98 2.90 2.65
1.45 1.57 1.82 1.94 1.95 1.92 1.98 2.12 2.14 2.09 2.05 2.07 2.02 2.05 2.04 1.75 1.94 2.02 2.03 2.13 2.26 2.26 2.12 1.99 1.88 1.87 1.82 1.86 1.83 1.93 2.23 2.46 2.60 2.75 2.73 2.84 3.05 3.24 3.37 3.34 3.21 3.09 2.98
1.48 1.63 1.84 1.96 2.05 2.09 2.07 2.17 2.11 2.12 2.18 2.12 2.03 2.03 2.05 2.12 2.19 2.03 1.88 1.85 1.94 1.98 1.94 1.91 1.67 1.58 1.77 1.75 1.81 1.79 1.82 1.99 2.17 2.42 2.50 2.44 2.64 2.96 3.27 3.18 3.33 3.39 3.27
1.72 1.92 2.04 2.18 2.14 2.12 2.12 2.15 2.24 2.32 2.36 2.34 2.27 2.19 2.18 2.15 2.15 1.94 1.93 1.82 1.81 1.81 1.83 1.86 1.85 1.77 1.83 1.97 1.94 1.86 1.74 1.72 1.85 1.92 2.01 2.15 2.40 2.77 3.08 3.04 3.12 3.22 3.21
1.87 1.97 2.13 2.24 2.28 2.29 2.29 2.27 2.39 2.52 2.48 2.41 2.35 2.37 2.31 2.31 2.38 2.17 2.18 1.99 1.97 1.98 2.01 2.02 1.99 1.88 2.04 2.01 1.90 1.88 1.82 1.82 1.92 2.02 1.95 2.03 2.28 2.44 2.66 2.77 2.74 2.81 2.71
1.85 1.96 2.14 2.37 2.43 2.44 2.60 2.70 2.68 2.65 2.52 2.53 2.52 2.49 2.47 2.50 2.73 2.55 2.39 2.18 2.17 2.16 2.27 2.26 2.29 2.13 2.13 2.08 1.92 1.93 1.92 1.94 2.07 2.02 1.98 1.92 1.94 2.18 2.46 2.49 2.69 2.91 2.75
1.88 2.02 2.21 2.39 2.49 2.57 2.76 2.86 2.85 2.79 2.79 2.74 2.65 2.67 2.65 2.63 2.81 2.57 2.37 2.20 2.24 2.39 2.40 2.33 2.37 2.41 2.19 2.19 2.14 2.03 2.02 2.03 2.01 2.03 2.02 1.99 2.00 2.12 2.25 2.38 2.66 2.88 2.87
1.85 1.99 2.13 2.29 2.30 2.38 2.67 2.78 2.90 2.95 2.89 2.80 2.76 2.60 2.59 2.56 2.48 2.34 2.24 2.21 2.30 2.43 2.51 2.45 2.40 2.40 2.16 2.09 1.94 1.91 1.97 1.87 1.77 1.88 1.88 1.90 1.92 1.93 2.04 2.26 2.49 2.59 2.66
1.97 2.09 2.22 2.30 2.34 2.44 2.57 2.62 2.72 2.80 2.76 2.64 2.65 2.59 2.51 2.50 2.48 2.24 2.02 1.99 2.06 2.08 2.24 2.40 2.33 2.21 2.02 1.83 1.77 1.75 1.67 1.55 1.56 1.62 1.60 1.61 1.69 1.78 1.90 2.05 2.27 2.40 2.39
2.06 2.12 2.21 2.32 2.31 2.40 2.53 2.64 2.74 2.82 2.91 2.82 2.68 2.54 2.50 2.46 2.34 2.17 1.96 1.87 1.98 2.10 2.20 2.27 2.16 2.05 1.85 1.69 1.62 1.53 1.49 1.57 1.61 1.59 1.61 1.72 1.80 1.84 1.84 1.88 2.03 2.17 2.19
2.02 2.08 2.11 2.15 2.24 2.36 2.43 2.55 2.53 2.60 2.64 2.63 2.53 2.50 2.45 2.36 2.21 2.14 1.93 1.81 1.93 2.11 2.18 2.20 2.07 2.00 1.88 1.78 1.71 1.66 1.65 1.69 1.65 1.64 1.70 1.71 1.72 1.81 1.81 1.82 1.93 1.94 1.89
2.10 2.13 2.09 2.03 2.10 2.16 2.23 2.26 2.29 2.18 2.17 2.10 2.08 2.08 2.01 1.90 1.81 1.69 1.66 1.66 1.75 1.92 1.92 1.98 2.09 2.07 2.01 1.92 1.82 1.74 1.71 1.68 1.64 1.68 1.78 1.80 1.75 1.72 1.77 1.75 1.82 1.87 1.79
2.01 2.06 2.07 2.04 2.07 2.07 2.15 2.14 2.18 2.12 2.01 1.88 1.80 1.81 1.86 1.84 1.77 1.74 1.75 1.78 1.75 1.80 1.71 1.82 1.96 1.97 1.98 1.95 1.82 1.68 1.63 1.66 1.75 1.74 1.78 1.80 1.84 1.83 1.86 1.84 1.83 1.91 1.85
1.71 1.83 1.97 2.05 2.09 2.12 2.21 2.29 2.36 2.39 2.29 2.05 1.88 1.81 1.74 1.73 1.65 1.67 1.74 1.69 1.60 1.60 1.63 1.78 1.86 1.86 1.85 1.80 1.73 1.66 1.66 1.71 1.80 1.77 1.78 1.82 1.86 1.88 1.90 1.91 1.88 1.86 1.85
1.64 1.67 1.69 1.75 1.88 1.98 2.01 2.07 2.19 2.29 2.32 2.22 2.05 1.96 1.89 1.78 1.65 1.61 1.55 1.39 1.42 1.55 1.69 1.74 1.80 1.80 1.69 1.63 1.59 1.54 1.58 1.68 1.78 1.83 1.81 1.87 1.90 1.95 1.95 1.91 1.95 1.97 1.86
1.69 1.73 1.66 1.60 1.59 1.67 1.75 1.85 1.97 2.12 2.21 2.19 2.12 2.01 1.91 1.78 1.51 1.42 1.34 1.30 1.38 1.45 1.52 1.55 1.59 1.57 1.48 1.50 1.55 1.54 1.51 1.62 1.74 1.78 1.76 1.81 1.87 1.90 1.83 1.81 1.84 1.87 1.75
1.68 1.67 1.68 1.63 1.63 1.68 1.74 1.82 1.86 1.91 1.97 1.93 1.84 1.77 1.69 1.50 1.36 1.29 1.28 1.31 1.38 1.45 1.51 1.55 1.55 1.49 1.47 1.52 1.59 1.61 1.57 1.63 1.72 1.75 1.76 1.80 1.87 1.89 1.80 1.78 1.77 1.78 1.78
1.69 1.61 1.55 1.56 1.63 1.69 1.76 1.85 1.90 1.91 1.85 1.76 1.68 1.58 1.55 1.39 1.33 1.33 1.34 1.36 1.42 1.54 1.57 1.57 1.59 1.54 1.50 1.53 1.61 1.68 1.72 1.72 1.75 1.75 1.72 1.74 1.82 1.86 1.89 1.85 1.85 1.85 1.88
1.78 1.67 1.64 1.64 1.68 1.70 1.71 1.77 1.82 1.80 1.76 1.69 1.59 1.53 1.47 1.43 1.37 1.42 1.48 1.55 1.63 1.63 1.57 1.55 1.54 1.52 1.50 1.53 1.53 1.60 1.72 1.77 1.76 1.75 1.79 1.82 1.80 1.77 1.79 1.75 1.75 1.78 1.80
1.83 1.73 1.64 1.61 1.63 1.65 1.71 1.80 1.79 1.72 1.64 1.62 1.64 1.64 1.62 1.61 1.56 1.55 1.60 1.69 1.64 1.52 1.43 1.41 1.42 1.40 1.44 1.50 1.48 1.46 1.51 1.63 1.66 1.62 1.61 1.66 1.68 1.70 1.75 1.73 1.72 1.73 1.80
1.83 1.82 1.71 1.61 1.61 1.65 1.67 1.75 1.76 1.73 1.66 1.57 1.58 1.61 1.66 1.72 1.66 1.61 1.62 1.59 1.50 1.41 1.30 1.34 1.37 1.34 1.36 1.39 1.40 1.41 1.51 1.54 1.52 1.52 1.50 1.53 1.57 1.65 1.74 1.76 1.76 1.75 1.77
1.65 1.62 1.56 1.49 1.44 1.49 1.57 1.71 1.74 1.77 1.77 1.69 1.67 1.68 1.63 1.60 1.56 1.54 1.53 1.51 1.49 1.39 1.30 1.30 1.32 1.30 1.33 1.33 1.28 1.31 1.33 1.25 1.26 1.38 1.35 1.38 1.53 1.63 1.70 1.78 1.80 1.84 1.82

GEFSGL_prec_meanprecacc_360.txt.gz
Total_Precipitation_Accumulation
2.32 2.52 2.51 2.52 2.60 2.70 2.55 2.28 2.22 2.26 2.39 2.46 2.57 2.55 2.46 2.48 2.61 2.68 2.64 2.97 3.13 3.15 3.14 3.15 3.13 3.29 3.27 3.15 3.26 3.44 3.72 3.81 3.39 2.80 2.67 2.62 2.63 2.50 2.49 2.32 2.19 2.15 1.94
2.22 2.44 2.51 2.51 2.57 2.62 2.48 2.29 2.29 2.37 2.39 2.34 2.40 2.39 2.26 2.29 2.51 2.53 2.58 2.90 3.06 2.93 2.95 2.99 2.75 2.85 2.95 2.81 2.96 3.03 3.18 3.45 3.35 2.98 2.89 2.85 2.82 2.73 2.72 2.63 2.33 2.09 1.83
2.15 2.46 2.63 2.69 2.67 2.60 2.41 2.21 2.12 2.08 2.12 2.13 2.14 2.16 2.21 2.37 2.47 2.46 2.49 2.49 2.52 2.60 2.83 2.95 2.74 2.73 2.64 2.66 2.71 2.69 2.76 2.87 3.15 3.04 2.87 2.92 2.85 2.86 2.80 2.58 2.37 2.24 1.85
2.08 2.29 2.45 2.35 2.29 2.31 2.18 1.99 1.90 1.90 1.93 2.00 2.08 2.17 2.23 2.30 2.35 2.44 2.50 2.41 2.38 2.43 2.58 2.67 2.64 2.59 2.51 2.63 2.56 2.59 2.66 2.83 3.00 3.04 2.91 3.01 2.99 2.95 3.02 2.80 2.80 2.61 2.32
1.74 1.85 2.02 2.02 1.98 1.97 2.00 2.02 2.03 2.07 2.00 2.08 2.15 2.16 2.14 2.11 2.04 2.14 2.21 2.25 2.40 2.34 2.24 2.22 2.21 2.26 2.25 2.31 2.15 2.36 2.63 2.79 2.87 2.89 2.88 3.06 3.20 3.25 3.08 3.02 3.06 2.97 2.71
1.46 1.59 1.85 1.99 2.02 2.01 2.07 2.21 2.25 2.19 2.14 2.15 2.09 2.12 2.09 1.79 1.99 2.06 2.07 2.17 2.30 2.31 2.17 2.03 1.92 1.90 1.84 1.88 1.86 1.97 2.27 2.49 2.63 2.79 2.77 2.88 3.10 3.30 3.45 3.41 3.27 3.16 3.03
1.49 1.64 1.86 2.00 2.10 2.17 2.18 2.30 2.24 2.23 2.28 2.19 2.10 2.09 2.10 2.17 2.25 2.06 1.91 1.87 1.98 2.03 1.99 1.96 1.70 1.60 1.81 1.78 1.84 1.81 1.83 2.00 2.18 2.44 2.54 2.48 2.69 3.01 3.34 3.24 3.41 3.46 3.33
1.74 1.93 2.05 2.20 2.17 2.15 2.16 2.21 2.31 2.41 2.45 2.42 2.33 2.24 2.22 2.19 2.18 1.96 1.95 1.84 1.84 1.86 1.88 1.91 1.89 1.81 1.87 2.01 1.98 1.89 1.76 1.74 1.87 1.95 2.03 2.18 2.43 2.81 3.14 3.11 3.20 3.29 3.28
1.89 2.00 2.16 2.27 2.30 2.31 2.31 2.30 2.43 2.55 2.52 2.46 2.39 2.41 2.36 2.36 2.40 2.18 2.19 2.01 2.01 2.02 2.05 2.06 2.04 1.93 2.09 2.03 1.93 1.91 1.86 1.85 1.94 2.06 1.99 2.06 2.30 2.48 2.70 2.81 2.80 2.89 2.78
1.88 2.01 2.18 2.41 2.46 2.47 2.62 2.72 2.70 2.67 2.55 2.56 2.56 2.52 2.51 2.53 2.75 2.56 2.40 2.21 2.20 2.20 2.30 2.30 2.35 2.18 2.16 2.09 1.94 1.95 1.95 1.98 2.10 2.04 2.00 1.95 1.97 2.22 2.51 2.54 2.74 2.99 2.83
1.91 2.06 2.25 2.43 2.53 2.59 2.78 2.87 2.87 2.82 2.82 2.77 2.68 2.70 2.69 2.66 2.83 2.58 2.38 2.22 2.27 2.43 2.44 2.37 2.41 2.43 2.20 2.21 2.15 2.04 2.04 2.06 2.04 2.06 2.07 2.03 2.05 2.17 2.31 2.45 2.73 2.96 2.95
1.87 2.01 2.16 2.32 2.33 2.40 2.70 2.80 2.92 2.97 2.92 2.83 2.80 2.64 2.64 2.60 2.50 2.35 2.25 2.22 2.32 2.47 2.56 2.51 2.45 2.43 2.18 2.10 1.96 1.92 1.98 1.88 1.80 1.91 1.92 1.94 1.98 1.99 2.09 2.31 2.55 2.65 2.72
2.01 2.12 2.25 2.33 2.38 2.48 2.59 2.64 2.74 2.81 2.77 2.65 2.68 2.62 2.55 2.54 2.51 2.25 2.03 2.01 2.08 2.11 2.27 2.45 2.38 2.27 2.06 1.85 1.80 1.76 1.68 1.57 1.59 1.64 1.63 1.65 1.74 1.84 1.94 2.09 2.31 2.46 2.46
2.11 2.17 2.27 2.37 2.35 2.42 2.55 2.66 2.76 2.83 2.92 2.83 2.69 2.56 2.52 2.48 2.36 2.19 1.98 1.88 2.01 2.12 2.22 2.30 2.19 2.09 1.89 1.73 1.64 1.56 1.51 1.59 1.63 1.60 1.63 1.75 1.86 1.89 1.88 1.92 2.07 2.24 2.27
2.07 2.16 2.18 2.21 2.28 2.39 2.46 2.57 2.56 2.63 2.67 2.64 2.55 2.51 2.46 2.37 2.23 2.16 1.96 1.83 1.95 2.13 2.21 2.22 2.09 2.03 1.90 1.80 1.73 1.68 1.68 1.71 1.67 1.66 1.73 1.74 1.76 1.84 1.84 1.86 1.98 2.02 1.98
2.14 2.17 2.14 2.09 2.14 2.19 2.26 2.28 2.31 2.20 2.19 2.13 2.11 2.11 2.03 1.93 1.83 1.70 1.67 1.67 1.76 1.94 1.94 1.99 2.12 2.11 2.05 1.96 1.86 1.77 1.74 1.71 1.67 1.71 1.82 1.85 1.80 1.78 1.83 1.82 1.89 1.94 1.88
2.03 2.08 2.09 2.08 2.10 2.10 2.18 2.17 2.22 2.15 2.03 1.90 1.82 1.83 1.88 1.86 1.79 1.75 1.76 1.79 1.77 1.82 1.73 1.84 2.00 2.01 2.03 2.00 1.88 1.73 1.67 1.68 1.78 1.78 1.83 1.86 1.92 1.92 1.95 1.93 1.92 1.99 1.93
1.74 1.84 1.99 2.08 2.12 2.14 2.24 2.33 2.41 2.43 2.31 2.07 1.90 1.83 1.76 1.74 1.67 1.68 1.75 1.71 1.62 1.63 1.66 1.81 1.90 1.90 1.90 1.86 1.79 1.72 1.74 1.77 1.85 1.83 1.84 1.89 1.93 1.96 1.99 2.00 1.97 1.94 1.92
1.67 1.68 1.70 1.77 1.89 2.00 2.02 2.09 2.20 2.31 2.36 2.26 2.08 1.98 1.91 1.80 1.66 1.61 1.57 1.41 1.45 1.58 1.73 1.77 1.83 1.84 1.73 1.68 1.66 1.61 1.65 1.77 1.86 1.91 1.88 1.93 1.97 2.02 2.03 2.00 2.05 2.04 1.92
1.72 1.75 1.68 1.61 1.60 1.68 1.76 1.86 1.98 2.15 2.24 2.21 2.14 2.02 1.91 1.79 1.51 1.43 1.36 1.32 1.41 1.48 1.55 1.58 1.61 1.60 1.52 1.55 1.61 1.60 1.58 1.69 1.82 1.86 1.82 1.86 1.93 1.97 1.91 1.88 1.90 1.93 1.80
1.70 1.70 1.71 1.65 1.65 1.70 1.76 1.84 1.88 1.95 2.00 1.95 1.86 1.79 1.70 1.51 1.37 1.30 1.30 1.33 1.40 1.48 1.54 1.58 1.58 1.51 1.50 1.57 1.66 1.68 1.64 1.70 1.79 1.82 1.83 1.85 1.92 1.94 1.84 1.81 1.81 1.82 1.81
1.71 1.64 1.58 1.58 1.66 1.72 1.78 1.87 1.92 1.92 1.87 1.78 1.69 1.59 1.57 1.41 1.35 1.35 1.36 1.38 1.44 1.57 1.61 1.61 1.64 1.60 1.55 1.58 1.66 1.75 1.79 1.78 1.80 1.81 1.77 1.78 1.87 1.90 1.92 1.89 1.88 1.88 1.92
1.79 1.70 1.66 1.67 1.70 1.71 1.72 1.78 1.83 1.81 1.77 1.71 1.62 1.55 1.50 1.46 1.39 1.44 1.50 1.59 1.68 1.68 1.63 1.60 1.59 1.56 1.56 1.59 1.58 1.65 1.77 1.83 1.81 1.79 1.84 1.87 1.84 1.81 1.84 1.79 1.78 1.80 1.82
1.84 1.76 1.67 1.64 1.65 1.67 1.73 1.82 1.81 1.73 1.65 1.64 1.66 1.67 1.64 1.64 1.59 1.57 1.63 1.72 1.68 1.56 1.47 1.47 1.48 1.46 1.49 1.56 1.53 1.50 1.55 1.68 1.71 1.66 1.66 1.72 1.74 1.74 1.80 1.78 1.76 1.76 1.82
1.84 1.83 1.72 1.62 1.62 1.66 1.69 1.77 1.78 1.75 1.68 1.59 1.60 1.63 1.69 1.75 1.69 1.64 1.66 1.65 1.54 1.44 1.33 1.38 1.42 1.39 1.41 1.47 1.46 1.44 1.54 1.57 1.55 1.54 1.53 1.58 1.63 1.71 1.79 1.81 1.81 1.78 1.79
1.65 1.62 1.57 1.49 1.45 1.49 1.58 1.72 1.75 1.78 1.79 1.71 1.69 1.70 1.65 1.62 1.59 1.57 1.58 1.56 1.53 1.42 1.33 1.32 1.34 1.32 1.36 1.37 1.33 1.35 1.36 1.27 1.28 1.39 1.37 1.40 1.56 1.69 1.77 1.84 1.84 1.87 1.85

GEFSGL_prec_meanprecacc_366.txt.gz
Total_Precipitation_Accumulation
2.34 2.53 2.53 2.54 2.63 2.72 2.56 2.30 2.24 2.28 2.40 2.48 2.59 2.58 2.49 2.52 2.66 2.73 2.68 3.00 3.15 3.17 3.15 3.17 3.14 3.30 3.30 3.18 3.28 3.47 3.76 3.85 3.41 2.82 2.68 2.65 2.67 2.55 2.55 2.37 2.23 2.19 1.98
2.24 2.47 2.54 2.55 2.61 2.66 2.50 2.31 2.32 2.39 2.41 2.36 2.42 2.42 2.30 2.34 2.56 2.58 2.63 2.98 3.19 3.00 3.00 3.02 2.77 2.88 2.99 2.84 2.98 3.05 3.21 3.48 3.37 3.00 2.91 2.88 2.86 2.78 2.78 2.71 2.41 2.15 1.87
2.19 2.51 2.71 2.81 2.82 2.72 2.47 2.26 2.16 2.10 2.14 2.15 2.16 2.19 2.27 2.47 2.55 2.52 2.57 2.60 2.63 2.68 2.90 3.01 2.80 2.78 2.68 2.69 2.73 2.72 2.79 2.90 3.18 3.07 2.89 2.95 2.89 2.92 2.87 2.68 2.48 2.32 1.91
2.13 2.34 2.52 2.47 2.39 2.37 2.24 2.07 1.95 1.92 1.95 2.02 2.12 2.22 2.31 2.41 2.43 2.51 2.57 2.46 2.42 2.46 2.62 2.73 2.71 2.64 2.54 2.65 2.58 2.60 2.68 2.86 3.04 3.09 2.96 3.05 3.05 3.03 3.12 2.88 2.89 2.69 2.39
1.78 1.89 2.05 2.06 2.02 1.99 2.05 2.08 2.07 2.09 2.02 2.11 2.19 2.22 2.24 2.18 2.09 2.20 2.27 2.30 2.43 2.37 2.29 2.26 2.25 2.28 2.27 2.32 2.17 2.38 2.66 2.81 2.89 2.92 2.92 3.10 3.25 3.33 3.16 3.10 3.14 3.05 2.79
1.48 1.61 1.86 2.00 2.03 2.02 2.09 2.24 2.28 2.23 2.19 2.20 2.14 2.19 2.15 1.83 2.05 2.12 2.12 2.22 2.36 2.37 2.22 2.06 1.94 1.92 1.86 1.89 1.87 1.99 2.29 2.51 2.65 2.81 2.79 2.90 3.12 3.33 3.49 3.48 3.34 3.24 3.08
1.52 1.66 1.87 2.00 2.11 2.18 2.21 2.34 2.28 2.28 2.33 2.25 2.16 2.14 2.15 2.23 2.31 2.10 1.94 1.90 2.01 2.07 2.03 1.98 1.71 1.62 1.83 1.79 1.85 1.83 1.85 2.03 2.21 2.47 2.55 2.50 2.72 3.04 3.38 3.29 3.46 3.52 3.38
1.76 1.94 2.06 2.21 2.17 2.16 2.18 2.23 2.33 2.43 2.47 2.46 2.39 2.30 2.28 2.25 2.23 2.01 1.98 1.86 1.86 1.87 1.90 1.93 1.90 1.82 1.88 2.02 1.99 1.90 1.78 1.76 1.90 1.98 2.07 2.20 2.47 2.85 3.17 3.15 3.24 3.34 3.33
1.90 2.01 2.17 2.27 2.31 2.33 2.33 2.32 2.44 2.56 2.53 2.47 2.41 2.44 2.39 2.39 2.44 2.22 2.23 2.04 2.03 2.03 2.08 2.09 2.06 1.95 2.11 2.06 1.95 1.92 1.87 1.86 1.96 2.08 2.01 2.08 2.32 2.50 2.73 2.84 2.82 2.94 2.81
1.88 2.01 2.19 2.41 2.47 2.48 2.63 2.73 2.71 2.68 2.56 2.58 2.58 2.54 2.53 2.54 2.77 2.57 2.41 2.22 2.22 2.21 2.33 2.33 2.38 2.20 2.18 2.11 1.95 1.97 1.96 1.99 2.11 2.05 2.01 1.96 1.98 2.24 2.55 2.57 2.77 3.01 2.88
1.92 2.06 2.25 2.43 2.53 2.60 2.79 2.88 2.87 2.83 2.83 2.78 2.70 2.73 2.70 2.67 2.84 2.59 2.39 2.23 2.29 2.45 2.46 2.39 2.43 2.45 2.24 2.24 2.17 2.06 2.06 2.08 2.05 2.07 2.07 2.04 2.06 2.19 2.33 2.47 2.75 2.99 3.00
1.89 2.03 2.16 2.32 2.33 2.41 2.70 2.80 2.93 2.97 2.92 2.84 2.81 2.66 2.66 2.61 2.51 2.36 2.26 2.23 2.34 2.48 2.57 2.52 2.48 2.46 2.22 2.15 1.99 1.95 2.01 1.91 1.82 1.93 1.93 1.96 2.00 2.02 2.12 2.33 2.57 2.68 2.76
2.03 2.14 2.26 2.34 2.39 2.48 2.60 2.65 2.74 2.82 2.77 2.66 2.69 2.63 2.56 2.55 2.52 2.26 2.04 2.02 2.09 2.12 2.28 2.46 2.40 2.30 2.09 1.88 1.83 1.81 1.72 1.59 1.61 1.67 1.65 1.66 1.76 1.86 1.96 2.11 2.34 2.50 2.52
2.15 2.20 2.28 2.39 2.37 2.44 2.56 2.67 2.77 2.84 2.92 2.83 2.69 2.57 2.53 2.49 2.37 2.20 1.99 1.89 2.03 2.14 2.23 2.31 2.20 2.10 1.91 1.74 1.66 1.58 1.53 1.61 1.66 1.64 1.66 1.77 1.87 1.90 1.90 1.95 2.10 2.28 2.32
2.13 2.19 2.20 2.22 2.30 2.41 2.47 2.58 2.57 2.64 2.68 2.65 2.55 2.52 2.48 2.39 2.25 2.17 1.97 1.84 1.97 2.14 2.22 2.23 2.10 2.04 1.91 1.81 1.74 1.69 1.70 1.74 1.71 1.69 1.76 1.76 1.78 1.87 1.86 1.90 2.02 2.06 2.03
2.18 2.19 2.15 2.09 2.15 2.20 2.27 2.29 2.31 2.21 2.20 2.14 2.12 2.12 2.04 1.94 1.84 1.71 1.68 1.68 1.76 1.94 1.94 2.00 2.12 2.11 2.05 1.97 1.87 1.78 1.76 1.74 1.70 1.74 1.85 1.87 1.83 1.81 1.86 1.86 1.94 1.98 1.93
2.06 2.10 2.11 2.09 2.11 2.11 2.19 2.18 2.22 2.15 2.03 1.90 1.82 1.83 1.89 1.87 1.80 1.75 1.76 1.80 1.77 1.82 1.73 1.84 2.00 2.02 2.04 2.01 1.89 1.75 1.69 1.72 1.82 1.82 1.87 1.90 1.96 1.96 1.99 1.97 1.97 2.03 1.98
1.76 1.86 2.01 2.09 2.13 2.15 2.24 2.33 2.41 2.43 2.32 2.07 1.90 1.83 1.76 1.75 1.67 1.69 1.76 1.71 1.62 1.63 1.66 1.82 1.91 1.91 1.91 1.86 1.80 1.73 1.76 1.80 1.89 1.88 1.90 1.94 1.98 2.01 2.03 2.04 2.00 1.97 1.96
1.69 1.69 1.71 1.78 1.90 2.00 2.03 2.09 2.21 2.32 2.36 2.26 2.08 1.98 1.91 1.80 1.67 1.62 1.57 1.42 1.45 1.59 1.74 1.79 1.85 1.85 1.74 1.69 1.67 1.62 1.67 1.79 1.89 1.96 1.94 1.99 2.02 2.07 2.07 2.03 2.08 2.08 1.95
1.75 1.77 1.70 1.63 1.63 1.69 1.77 1.87 1.99 2.16 2.25 2.23 2.15 2.03 1.92 1.79 1.52 1.44 1.37 1.33 1.41 1.48 1.56 1.59 1.63 1.61 1.53 1.56 1.62 1.61 1.59 1.70 1.84 1.89 1.87 1.91 1.99 2.02 1.95 1.92 1.93 1.96 1.82
1.73 1.73 1.74 1.69 1.69 1.73 1.79 1.87 1.90 1.96 2.02 1.98 1.88 1.80 1.72 1.52 1.38 1.31 1.30 1.33 1.41 1.49 1.55 1.59 1.59 1.53 1.51 1.58 1.67 1.70 1.66 1.73 1.83 1.86 1.87 1.90 1.98 2.00 1.90 1.86 1.84 1.84 1.83
1.72 1.66 1.61 1.62 1.70 1.76 1.82 1.90 1.95 1.95 1.90 1.81 1.72 1.61 1.58 1.42 1.36 1.36 1.37 1.39 1.46 1.59 1.62 1.62 1.65 1.61 1.56 1.59 1.68 1.77 1.82 1.83 1.87 1.87 1.82 1.82 1.90 1.95 1.98 1.95 1.93 1.92 1.95
1.81 1.73 1.69 1.70 1.73 1.75 1.76 1.81 1.86 1.84 1.81 1.73 1.64 1.57 1.51 1.47 1.40 1.45 1.51 1.60 1.69 1.69 1.64 1.60 1.60 1.58 1.57 1.60 1.60 1.68 1.81 1.87 1.87 1.84 1.88 1.90 1.87 1.84 1.87 1.85 1.84 1.84 1.85
1.86 1.78 1.70 1.67 1.68 1.70 1.75 1.85 1.85 1.78 1.69 1.66 1.69 1.69 1.66 1.66 1.60 1.59 1.65 1.73 1.69 1.57 1.49 1.49 1.50 1.47 1.51 1.58 1.56 1.53 1.58 1.73 1.77 1.72 1.69 1.75 1.76 1.76 1.82 1.82 1.82 1.82 1.87
1.87 1.86 1.75 1.65 1.65 1.70 1.73 1.81 1.83 1.79 1.71 1.61 1.61 1.65 1.70 1.75 1.70 1.65 1.67 1.66 1.56 1.45 1.35 1.39 1.43 1.40 1.42 1.48 1.48 1.47 1.58 1.61 1.60 1.60 1.57 1.60 1.64 1.72 1.81 1.84 1.86 1.84 1.85
1.67 1.64 1.58 1.50 1.46 1.51 1.60 1.74 1.77 1.79 1.80 1.72 1.70 1.72 1.67 1.63 1.60 1.58 1.59 1.58 1.54 1.44 1.33 1.32 1.35 1.33 1.38 1.39 1.35 1.38 1.39 1.30 1.32 1.43 1.39 1.42 1.57 1.70 1.78 1.86 1.88 1.93 1.91

GEFSGL_prec_meanprecacc_372.txt.gz
Total_Precipitation_Accumulation
2.37 2.58 2.61 2.63 2.70 2.75 2.58 2.32 2.26 2.31 2.43 2.50 2.61 2.60 2.51 2.54 2.67 2.74 2.70 3.03 3.18 3.21 3.19 3.20 3.17 3.33 3.32 3.21 3.31 3.49 3.79 3.88 3.44 2.84 2.69 2.66 2.68 2.56 2.57 2.39 2.24 2.20 2.00
2.31 2.57 2.72 2.73 2.69 2.68 2.53 2.34 2.34 2.42 2.44 2.39 2.45 2.45 2.32 2.36 2.58 2.59 2.65 3.01 3.23 3.05 3.03 3.05 2.81 2.92 3.04 2.87 3.01 3.09 3.24 3.50 3.40 3.02 2.92 2.88 2.87 2.79 2.79 2.73 2.43 2.16 1.89
2.25 2.57 2.79 2.87 2.85 2.75 2.50 2.28 2.19 2.13 2.17 2.18 2.19 2.22 2.29 2.49 2.57 2.54 2.59 2.62 2.67 2.72 2.94 3.06 2.86 2.85 2.73 2.74 2.79 2.76 2.84 2.95 3.22 3.10 2.90 2.96 2.91 2.94 2.90 2.70 2.49 2.34 1.93
2.17 2.38 2.57 2.51 2.42 2.41 2.27 2.10 1.97 1.94 1.97 2.04 2.14 2.24 2.33 2.42 2.44 2.54 2.61 2.51 2.48 2.54 2.71 2.81 2.78 2.69 2.58 2.69 2.61 2.64 2.73 2.91 3.11 3.16 3.00 3.10 3.09 3.07 3.16 2.92 2.93 2.73 2.43
1.81 1.91 2.08 2.09 2.05 2.03 2.09 2.12 2.09 2.11 2.04 2.13 2.21 2.24 2.25 2.21 2.13 2.23 2.32 2.37 2.53 2.46 2.36 2.31 2.28 2.32 2.30 2.36 2.20 2.41 2.69 2.85 2.94 2.97 2.96 3.14 3.28 3.37 3.20 3.15 3.19 3.11 2.83
1.52 1.63 1.89 2.02 2.04 2.04 2.11 2.25 2.29 2.24 2.20 2.21 2.16 2.21 2.17 1.87 2.09 2.17 2.18 2.29 2.43 2.42 2.27 2.10 1.97 1.94 1.88 1.91 1.89 2.01 2.32 2.53 2.67 2.82 2.80 2.91 3.13 3.35 3.51 3.50 3.37 3.26 3.11
1.55 1.68 1.89 2.01 2.12 2.19 2.21 2.35 2.28 2.29 2.34 2.27 2.17 2.16 2.17 2.24 2.33 2.13 1.98 1.94 2.05 2.10 2.06 2.01 1.74 1.65 1.85 1.80 1.87 1.85 1.87 2.04 2.22 2.48 2.56 2.51 2.73 3.05 3.39 3.31 3.48 3.54 3.40
1.80 1.97 2.08 2.22 2.18 2.17 2.19 2.24 2.34 2.44 2.48 2.48 2.40 2.31 2.29 2.27 2.25 2.03 2.00 1.89 1.90 1.92 1.94 1.97 1.93 1.85 1.91 2.04 2.02 1.92 1.79 1.77 1.91 1.99 2.08 2.22 2.48 2.86 3.20 3.17 3.26 3.36 3.35
1.91 2.02 2.17 2.28 2.32 2.34 2.34 2.33 2.45 2.58 2.55 2.49 2.43 2.45 2.40 2.41 2.46 2.24 2.24 2.05 2.06 2.08 2.13 2.15 2.10 1.98 2.14 2.09 1.97 1.93 1.88 1.87 1.98 2.10 2.02 2.09 2.33 2.51 2.75 2.85 2.85 2.97 2.85
1.89 2.01 2.19 2.42 2.48 2.49 2.64 2.75 2.72 2.70 2.58 2.59 2.59 2.55 2.54 2.55 2.77 2.58 2.43 2.24 2.24 2.25 2.37 2.38 2.43 2.26 2.23 2.15 1.98 1.98 1.98 2.01 2.14 2.07 2.03 1.97 1.98 2.25 2.56 2.59 2.79 3.05 2.91
1.93 2.07 2.26 2.44 2.54 2.61 2.80 2.89 2.88 2.83 2.84 2.79 2.70 2.73 2.71 2.67 2.84 2.59 2.40 2.24 2.30 2.47 2.49 2.41 2.45 2.48 2.27 2.28 2.22 2.10 2.10 2.13 2.10 2.11 2.09 2.05 2.07 2.19 2.35 2.50 2.77 3.01 3.02
1.90 2.05 2.18 2.33 2.34 2.42 2.71 2.81 2.93 2.98 2.93 2.84 2.81 2.67 2.67 2.62 2.52 2.37 2.27 2.24 2.34 2.48 2.57 2.53 2.49 2.47 2.24 2.17 2.02 1.99 2.07 1.96 1.87 1.97 1.97 1.98 2.01 2.02 2.13 2.36 2.60 2.70 2.77
2.04 2.15 2.28 2.36 2.40 2.50 2.61 2.66 2.76 2.83 2.79 2.67 2.69 2.64 2.57 2.57 2.55 2.30 2.07 2.03 2.10 2.12 2.28 2.47 2.41 2.31 2.10 1.89 1.85 1.83 1.74 1.63 1.65 1.70 1.68 1.69 1.79 1.88 1.97 2.13 2.36 2.52 2.54
2.17 2.21 2.30 2.41 2.39 2.46 2.57 2.68 2.79 2.86 2.94 2.85 2.71 2.58 2.54 2.50 2.39 2.23 2.04 1.93 2.05 2.15 2.24 2.32 2.21 2.11 1.92 1.75 1.67 1.59 1.55 1.64 1.70 1.67 1.68 1.80 1.91 1.95 1.92 1.97 2.12 2.29 2.34
2.14 2.20 2.22 2.24 2.32 2.43 2.48 2.59 2.58 2.65 2.69 2.67 2.57 2.53 2.49 2.40 2.25 2.17 1.97 1.85 1.97 2.15 2.23 2.24 2.11 2.05 1.92 1.82 1.75 1.71 1.72 1.75 1.73 1.73 1.79 1.79 1.82 1.92 1.89 1.93 2.05 2.10 2.06
2.20 2.21 2.17 2.11 2.17 2.22 2.28 2.30 2.33 2.22 2.22 2.15 2.13 2.12 2.05 1.95 1.85 1.71 1.68 1.68 1.77 1.95 1.95 2.00 2.13 2.12 2.06 1.98 1.88 1.79 1.77 1.75 1.71 1.76 1.88 1.90 1.86 1.86 1.92 1.90 1.98 2.02 1.97
2.09 2.13 2.13 2.10 2.12 2.12 2.20 2.20 2.24 2.17 2.05 1.91 1.83 1.84 1.89 1.87 1.80 1.76 1.77 1.80 1.78 1.83 1.74 1.84 2.00 2.02 2.04 2.01 1.89 1.75 1.69 1.73 1.83 1.84 1.90 1.94 2.00 2.00 2.05 2.02 2.01 2.07 2.01
1.79 1.88 2.02 2.10 2.14 2.17 2.27 2.36 2.44 2.46 2.35 2.10 1.92 1.84 1.77 1.75 1.68 1.69 1.76 1.72 1.62 1.63 1.67 1.82 1.91 1.91 1.91 1.87 1.80 1.74 1.76 1.81 1.90 1.89 1.92 1.98 2.03 2.05 2.07 2.08 2.05 2.00 1.98
1.72 1.72 1.72 1.79 1.92 2.03 2.05 2.12 2.24 2.35 2.39 2.29 2.10 2.00 1.92 1.80 1.67 1.62 1.57 1.42 1.46 1.59 1.74 1.79 1.85 1.86 1.75 1.69 1.68 1.62 1.67 1.79 1.90 1.97 1.95 2.01 2.07 2.13 2.12 2.07 2.12 2.12 1.97
1.78 1.80 1.73 1.66 1.65 1.71 1.79 1.88 2.01 2.18 2.27 2.24 2.16 2.03 1.92 1.79 1.52 1.44 1.37 1.34 1.42 1.49 1.56 1.59 1.63 1.61 1.53 1.57 1.62 1.62 1.59 1.71 1.84 1.90 1.88 1.93 2.02 2.08 2.02 1.97 1.97 2.00 1.84
1.77 1.76 1.77 1.72 1.73 1.77 1.81 1.89 1.92 1.98 2.03 1.98 1.89 1.81 1.72 1.52 1.39 1.32 1.31 1.34 1.42 1.50 1.55 1.60 1.59 1.53 1.52 1.59 1.68 1.70 1.67 1.74 1.84 1.87 1.88 1.92 2.00 2.04 1.96 1.92 1.88 1.88 1.87
1.77 1.69 1.63 1.64 1.73 1.79 1.85 1.94 1.99 1.98 1.92 1.83 1.73 1.63 1.59 1.43 1.37 1.37 1.38 1.39 1.46 1.59 1.63 1.63 1.65 1.61 1.57 1.60 1.68 1.78 1.83 1.84 1.88 1.89 1.84 1.84 1.92 1.97 2.02 2.02 1.98 1.96 1.98
1.84 1.75 1.71 1.72 1.76 1.78 1.79 1.84 1.89 1.87 1.84 1.76 1.66 1.58 1.53 1.48 1.41 1.46 1.52 1.60 1.69 1.69 1.64 1.61 1.60 1.58 1.58 1.60 1.60 1.68 1.82 1.89 1.89 1.87 1.91 1.93 1.90 1.87 1.91 1.90 1.91 1.89 1.88
1.87 1.80 1.72 1.69 1.70 1.72 1.77 1.87 1.86 1.79 1.71 1.69 1.71 1.70 1.67 1.67 1.61 1.60 1.65 1.74 1.70 1.58 1.50 1.49 1.51 1.48 1.51 1.58 1.56 1.54 1.59 1.74 1.80 1.74 1.72 1.77 1.78 1.79 1.85 1.86 1.87 1.87 1.92
1.88 1.87 1.76 1.66 1.67 1.71 1.74 1.83 1.84 1.82 1.74 1.65 1.66 1.69 1.73 1.77 1.72 1.66 1.68 1.68 1.57 1.46 1.35 1.40 1.44 1.41 1.42 1.48 1.49 1.48 1.59 1.62 1.62 1.62 1.59 1.62 1.67 1.74 1.83 1.87 1.89 1.86 1.87
1.69 1.65 1.59 1.51 1.47 1.52 1.62 1.76 1.79 1.81 1.82 1.74 1.73 1.75 1.70 1.66 1.62 1.60 1.60 1.59 1.56 1.45 1.35 1.34 1.35 1.34 1.38 1.39 1.36 1.38 1.39 1.30 1.32 1.44 1.40 1.43 1.59 1.72 1.79 1.88 1.90 1.95 1.94